Location: Albany
(35.0000°S, 118.0000°E)
Time: 14:17:21
(UTC-04:00)

Transit 2A - Visible Passes

Search period start: 01 October 2014 00:00
Search period end: 11 October 2014 00:00
Orbit: 600 x 963 km, 66.7° (Epoch: 01 October)

Date Brightness Start Highest point End Pass type
(mag) Time Alt. Az. Time Alt. Az. Time Alt. Az.
01 Oct 6.6 07:41:21 10° N 07:47:22 47° ENE 07:53:25 10° SE visible
01 Oct 8.1 09:25:24 10° WNW 09:30:51 29° SW 09:36:16 10° S visible
01 Oct 8.8 16:33:50 10° S 16:37:33 18° SE 16:41:01 10° E visible
02 Oct 7.1 07:08:25 10° N 07:13:58 33° ENE 07:19:32 10° SE visible
02 Oct 7.7 08:51:13 10° NW 08:57:09 40° WSW 09:03:02 10° SSE visible
02 Oct 9.0 16:01:12 10° SSE 16:03:41 13° SE 16:06:03 10° ESE visible
03 Oct 7.5 06:35:50 10° NNE 06:40:37 23° ENE 06:45:24 10° SE visible
03 Oct 7.1 08:17:16 10° NW 08:23:30 55° WSW 08:29:42 10° SSE visible
03 Oct 6.4 17:08:55 10° SSW 17:14:14 65° ESE 17:18:57 10° NE visible
04 Oct 6.6 07:43:32 10° NNW 07:49:55 77° WSW 07:56:15 10° SSE visible
04 Oct 9.2 09:30:58 10° WSW 09:34:09 14° SW 09:37:19 10° SSW visible
04 Oct 7.2 16:35:31 10° SSW 16:40:37 43° ESE 16:45:10 10° NE visible
05 Oct 6.4 07:10:02 10° NNW 07:16:23 77° ENE 07:22:42 10° SSE visible
05 Oct 8.9 08:55:53 10° W 09:00:17 19° SW 09:04:38 10° S visible
05 Oct 7.9 16:02:16 10° S 16:06:55 29° SE 16:11:08 10° ENE visible
06 Oct 6.6 06:36:44 10° N 06:42:54 54° ENE 06:49:02 10° SE visible
06 Oct 8.5 08:21:16 10° WNW 08:26:29 26° SW 08:31:38 10° S visible
06 Oct 8.5 15:29:11 10° S 15:33:08 21° SE 15:36:48 10° E visible
06 Oct 6.2 17:11:43 10° SW 17:16:40 44° WNW 17:21:06 10° N visible
07 Oct 8.1 07:46:59 10° WNW 07:52:45 35° SW 07:58:27 10° S visible
07 Oct 8.9 14:56:23 10° SSE 14:59:18 15° SE 15:02:03 10° E visible
07 Oct 5.8 16:38:00 10° SSW 16:43:13 70° WNW 16:47:53 10° NNE visible
08 Oct 7.5 07:12:56 10° NW 07:19:05 49° WSW 07:25:09 10° SSE visible
08 Oct 9.2 14:24:53 10° SE 14:25:22 10° SE 14:25:52 10° SE visible
08 Oct 6.0 16:04:26 10° SSW 16:09:43 76° ESE 16:14:24 10° NNE visible
09 Oct 7.0 06:39:07 10° NW 06:45:28 68° WSW 06:51:44 10° SSE visible
09 Oct 9.4 08:27:20 10° WSW 08:29:50 12° SW 08:32:18 10° SSW visible
09 Oct 6.7 15:31:00 10° SSW 15:36:07 49° ESE 15:40:42 10° NE visible
10 Oct 9.2 07:51:56 10° W 07:55:56 17° SW 07:59:51 10° S visible
10 Oct 7.5 14:57:41 10° S 15:02:27 33° SE 15:06:45 10° ENE visible
10 Oct 6.8 16:41:24 10° SW 16:45:24 24° WNW 16:49:07 10° NNW visible
